Weather History for Asheville, NC

Change the Weather History Date:

Monday, November 5, 2007

  Actual Average Record
Temperature  
Mean Temperature 50 °F 50 °F  
Max Temperature 68 °F 63 °F 78 °F (1978)
Min Temperature 31 °F 39 °F 20 °F (1991)
Degree Days  
Heating Degree Days 15 15  
Month to date heating degree days 72 70  
Since 1 July heating degree days 304 405  
Cooling Degree Days 0 0  
Month to date cooling degree days 0 0  
Year to date cooling degree days 984 862  
Moisture  
Dew Point 32 °F    
Average Humidity 55    
Maximum Humidity 85    
Minimum Humidity 24    
Precipitation  
Precipitation 0.00 in 0.11 in 2.01 in (1938)
Month to date precipitation 0.00 0.53  
Year to date precipitation 28.84 38.86  
Snow  
Snow 0.00 in 0.00 in 0.30 in (1962)
Month to date snowfall 0.0 0.0  
Since 1 July snowfall 0.0 0.0  
Since 1 September snowfall 0.0 0.0  
Snow Depth -    
Sea Level Pressure  
Sea Level Pressure 30.04 in    
Wind  
Wind Speed 5 mph (South)    
Max Wind Speed 15 mph    
Max Gust Speed 20 mph    
Visibility 10 miles    
Events      
T = Trace of Precipitation, MM = Missing Value Source: NWS Daily Summary

Daily Weather History Graph

Daily Weather History Graph

Search for Another Location

Airport:

Trip Planner

Search our weather history database for the weather conditions in past years. The results will help you decide how hot, cold, wet, or windy it might be!

Date:

Astronomy

Nov. 05, 2007 Rise Set
Actual Time 6:55 AM EST 5:31 PM EST
Civil Twilight 6:28 AM EST 5:58 PM EST
Nautical Twilight 5:58 AM EST 6:28 PM EST
Astronomical Twilight 5:28 AM EST 6:58 PM EST
Moon 2:57 AM EST (11/5) 3:18 PM EST (11/5)
Length of Visible Light 11h 29m
Length of Day
10h 36m
Waning Crescent, 16% of the Moon is Illuminated
Nov 5
Waning Crescent
Nov 9
New
Nov 17
First Quarter
Nov 24
Full
Dec 1
Last Quarter

Hourly Weather History & Observations

Time (EST) Temp. Windchill Dew Point Humidity Pressure Visibility Wind Dir Wind Speed Gust Speed Precip Events Conditions
12:54 AM 46.9 °F - 27.0 °F 46% 30.04 in 10.0 mi NNE 5.8 mph - N/A   Clear
1:54 AM 46.9 °F - 26.1 °F 44% 30.03 in 10.0 mi NE 4.6 mph - N/A   Clear
2:54 AM 42.1 °F - 26.1 °F 53% 30.05 in 10.0 mi Calm Calm - N/A   Clear
3:54 AM 37.9 °F - 27.0 °F 65% 30.08 in 10.0 mi Calm Calm - N/A   Clear
4:54 AM 36.0 °F 33.3 °F 26.1 °F 67% 30.09 in 10.0 mi NNW 3.5 mph - N/A   Clear
5:54 AM 34.0 °F - 28.0 °F 79% 30.13 in 10.0 mi Calm Calm - N/A   Clear
6:54 AM 30.9 °F - 27.0 °F 85% 30.14 in 10.0 mi Calm Calm - N/A   Clear
7:54 AM 35.1 °F - 28.9 °F 78% 30.18 in 10.0 mi Calm Calm - N/A   Clear
8:54 AM 39.9 °F - 28.9 °F 65% 30.17 in 10.0 mi Calm Calm - N/A   Clear
9:54 AM 48.0 °F - 27.0 °F 44% 30.17 in 10.0 mi Calm Calm - N/A   Clear
10:54 AM 53.1 °F - 26.1 °F 35% 30.14 in 10.0 mi Calm Calm - N/A   Clear
11:54 AM 57.0 °F - 26.1 °F 30% 30.09 in 10.0 mi SSE 4.6 mph - N/A   Clear
12:54 PM 62.1 °F - 27.0 °F 26% 30.03 in 10.0 mi SSE 8.1 mph - N/A   Clear
1:54 PM 66.0 °F - 28.0 °F 24% 29.99 in 10.0 mi Variable 4.6 mph - N/A   Clear
2:54 PM 68.0 °F - 30.0 °F 24% 29.98 in 10.0 mi South 10.4 mph - N/A   Clear
3:54 PM 64.9 °F - 32.0 °F 29% 29.98 in 10.0 mi South 11.5 mph 18.4 mph N/A   Clear
4:54 PM 63.0 °F - 33.1 °F 33% 29.98 in 10.0 mi South 11.5 mph 17.3 mph N/A   Clear
5:54 PM 57.9 °F - 34.0 °F 41% 29.97 in 10.0 mi South 8.1 mph - N/A   Clear
6:54 PM 57.0 °F - 37.0 °F 47% 29.97 in 10.0 mi South 8.1 mph - N/A   Clear
7:54 PM 55.9 °F - 41.0 °F 57% 29.97 in 10.0 mi South 11.5 mph - N/A   Clear
8:54 PM 55.9 °F - 42.1 °F 60% 29.96 in 10.0 mi SSE 8.1 mph - N/A   Clear
9:54 PM 59.0 °F - 43.0 °F 55% 29.95 in 10.0 mi North 4.6 mph - N/A   Clear
10:54 PM 59.0 °F - 44.1 °F 58% 29.93 in 10.0 mi SSW 11.5 mph - N/A   Mostly Cloudy
11:54 PM 59.0 °F - 44.1 °F 58% 29.90 in 10.0 mi SSW 11.5 mph - N/A   Overcast